{"data":{"norad_id":58082,"intl_designator":"2023-160H","name":"STARLINK-30610","alt_names":[],"object_type":"PAYLOAD","status":"ACTIVE","operator":null,"country":"US","launch_date":"2023-10-18","launch_site_code":"AFETR","launch_vehicle":null,"mission":null,"orbit_class":"UNKNOWN","rcs_meters":null,"size_class":null,"mass_kg":null,"dimensions":null,"purposes":["comms"],"wikipedia_slug":null,"has_3d_model":false,"image_url":null,"decayed_at":null,"tle_current":{"epoch":"2026-05-24T22:38:00.607776Z","epoch_age_seconds":86927,"freshness":"FRESH","line1":"1 58082U 23160H   26144.94306259  .00000236  00000+0  18096-4 0  9998","line2":"2 58082  43.0073   7.6015 0001734 233.2554 126.8139 15.27587834144605","mean_motion":15.27587834,"eccentricity":0.0001734,"inclination_deg":43.0073,"raan_deg":7.6015,"arg_perigee_deg":233.2554,"mean_anomaly_deg":126.8139,"bstar":1.8096e-5,"rev_number":14460,"period_min":94.266265281084,"perigee_km":481.83591272415,"apogee_km":484.21536392712,"semimajor_km":6861.1626383256,"source":"CELESTRAK","updated_at":"2026-05-25T13:38:18.522261Z"}}}